Whyalla, Australia

3:27 AM ACST on June 24, 2017 (GMT +0930)
Whyalla

Weather History for 94664 - August, 2013

Change the Weather History Date:

Sunday, August 11, 2013

  Actual Average Record
Temperature  
Mean Temperature 55 °F -  
Max Temperature 71 °F - - ()
Min Temperature 39 °F - - ()
Degree Days  
Heating Degree Days 10    
Growing Degree Days 5 (Base 50)    
Moisture  
Dew Point 48 °F    
Average Humidity 81    
Maximum Humidity 100    
Minimum Humidity 43    
Precipitation  
Precipitation 0.00 in - - ()
Sea Level Pressure  
Sea Level Pressure 29.88 in    
Wind  
Wind Speed 6 mph ()    
Max Wind Speed 13 mph    
Max Gust Speed -    
Visibility 5.9 miles    
Events      
T = Trace of Precipitation, MM = Missing Value Source: Averaged Metar Reports

Daily Weather History Graph

Daily Weather History Graph

Search for Another Location

Airport or City:

Trip Planner

Search our weather history database for the weather conditions in past years. The results will help you decide how hot, cold, wet, or windy it might be!

Date:

Astronomy

Aug. 11, 2013 Rise Set
Actual Time 7:02 AM ACST 5:48 PM ACST
Civil Twilight 6:36 AM ACST 6:14 PM ACST
Nautical Twilight 6:07 AM ACST 6:43 PM ACST
Astronomical Twilight 5:38 AM ACST 7:12 PM ACST
Moon 9:05 AM ACST (8/11) 10:00 PM ACST (8/11)
Length of Visible Light 11h 37m
Length of Day
10h 46m
Waxing Crescent, 17% of the Moon is Illuminated
Aug 11
Waxing Crescent
Aug 14
First Quarter
Aug 21
Full
Aug 28
Last Quarter
Sep 5
New

Hourly Weather History & Observations

Time (ACST) Temp. Windchill Dew Point Humidity Pressure Visibility Wind Dir Wind Speed Gust Speed Precip Events Conditions
12:30 AM 42.8 °F 38.6 °F 42.8 °F 100% 30.01 in 6.2 mi NW 6.9 mph - N/A   Unknown
1:30 AM 42.8 °F 38.6 °F 42.8 °F 100% 30.01 in 6.2 mi NNW 6.9 mph - N/A   Unknown
2:30 AM 42.8 °F 38.6 °F 42.8 °F 100% 30.01 in 6.2 mi NNW 6.9 mph - N/A   Unknown
3:30 AM 41.0 °F 37.1 °F 39.2 °F 93% 29.98 in 6.2 mi North 5.8 mph - N/A   Unknown
4:30 AM 39.2 °F 35.0 °F 37.4 °F 93% 29.95 in 6.2 mi NNW 5.8 mph - N/A   Unknown
5:30 AM 41.0 °F 39.0 °F 41.0 °F 100% 29.95 in 0.3 mi WNW 3.5 mph - N/A   Scattered Clouds
5:48 AM 39.2 °F 37.0 °F 39.2 °F 100% 29.95 in 5.6 mi NNW 3.5 mph - N/A   Unknown
6:30 AM 41.0 °F 36.4 °F 41.0 °F 100% 29.95 in 6.2 mi NNW 6.9 mph - N/A   Unknown
7:30 AM 41.0 °F 37.1 °F 41.0 °F 100% 29.95 in 6.2 mi NW 5.8 mph - N/A   Unknown
8:30 AM 50.0 °F - 48.2 °F 94% 29.95 in 6.2 mi NNW 6.9 mph - N/A   Unknown
9:30 AM 59.0 °F - 51.8 °F 77% 29.95 in 6.2 mi North 6.9 mph - N/A   Unknown
10:30 AM 66.2 °F - 50.0 °F 56% 29.92 in 6.2 mi NW 3.5 mph - N/A   Unknown
11:30 AM 68.0 °F - 44.6 °F 43% 29.89 in 6.2 mi North 9.2 mph - N/A   Mostly Cloudy
12:30 PM 69.8 °F - 46.4 °F 43% 29.86 in 6.2 mi North 9.2 mph - N/A   Overcast
1:30 PM 71.6 °F - 50.0 °F 46% 29.83 in 6.2 mi NNW 11.5 mph - N/A   Overcast
2:30 PM 68.0 °F - 53.6 °F 60% 29.83 in 6.2 mi NW 4.6 mph - N/A   Overcast
3:30 PM 62.6 °F - 55.4 °F 77% 29.80 in 6.2 mi West 8.1 mph - N/A   Overcast
4:30 PM 64.4 °F - 55.4 °F 73% 29.80 in 6.2 mi ENE 3.5 mph - N/A   Overcast
5:30 PM 62.6 °F - 55.4 °F 77% 29.80 in 6.2 mi North 6.9 mph - N/A   Scattered Clouds
6:30 PM 62.6 °F - 55.4 °F 77% 29.77 in 6.2 mi North 9.2 mph - N/A   Scattered Clouds
7:30 PM 60.8 °F - 55.4 °F 82% 29.77 in 6.2 mi NW 4.6 mph - N/A   Overcast
8:30 PM 59.0 °F - 55.4 °F 88% 29.77 in 6.2 mi North 5.8 mph - N/A   Overcast
9:30 PM 60.8 °F - 55.4 °F 82% 29.77 in 6.2 mi NW 12.7 mph - N/A   Mostly Cloudy
10:30 PM 59.0 °F - 53.6 °F 82% 29.77 in 6.2 mi NW 9.2 mph - N/A   Unknown
11:30 PM 57.2 °F - 53.6 °F 88% 29.80 in 6.2 mi WNW 8.1 mph - N/A   Unknown